Ironwood, MI

5:12 PM CST on December 07, 2016 (GMT -0600)
Gogebic-Iron County

Weather History for KIWD - January, 2014

Change the Weather History Date:

Thursday, January 23, 2014

  Actual Average Record
Temperature  
Mean Temperature -3 °F -  
Max Temperature 1 °F 19 °F 37 °F (2015)
Min Temperature -7 °F 5 °F -9 °F (2003)
Degree Days  
Heating Degree Days 68    
Moisture  
Dew Point -10 °F    
Average Humidity 70    
Maximum Humidity 92    
Minimum Humidity 54    
Precipitation  
Precipitation 0.00 in - - ()
Sea Level Pressure  
Sea Level Pressure 30.33 in    
Wind  
Wind Speed 10 mph (WNW)    
Max Wind Speed 15 mph    
Max Gust Speed 24 mph    
Visibility 6 miles    
Events      
Averages and records for this station are not official NWS values.
T = Trace of Precipitation, MM = Missing Value Source: NWS Daily Summary

Daily Weather History Graph

Daily Weather History Graph

Search for Another Location

Airport or City:

Trip Planner

Search our weather history database for the weather conditions in past years. The results will help you decide how hot, cold, wet, or windy it might be!

Date:

Astronomy

Jan. 23, 2014 Rise Set
Actual Time 7:33 AM CST 4:51 PM CST
Civil Twilight 7:00 AM CST 5:24 PM CST
Nautical Twilight 6:24 AM CST 6:01 PM CST
Astronomical Twilight 5:48 AM CST 6:37 PM CST
Moon No Moon Rise 10:41 AM CST (1/23)
Length of Visible Light 10h 23m
Length of Day
9h 17m
Waning Gibbous, 55% of the Moon is Illuminated
Jan 23
Waning Gibbous
Jan 23
Last Quarter
Jan 30
New
Feb 6
First Quarter
Feb 14
Full

Hourly Weather History & Observations

Time (CST) Temp. Windchill Dew Point Humidity Pressure Visibility Wind Dir Wind Speed Gust Speed Precip Events Conditions
12:15 AM 1.4 °F -15.3 °F -5.8 °F 72% 30.23 in 1.5 mi North 11.5 mph 18.4 mph N/A   Overcast
12:35 AM 1.4 °F -16.1 °F -5.8 °F 72% 30.24 in 2.5 mi North 12.7 mph - N/A   Overcast
12:55 AM 1.4 °F -12.5 °F -5.8 °F 72% 30.25 in 3.0 mi North 8.1 mph 16.1 mph N/A   Overcast
1:15 AM 1.4 °F -11.3 °F -5.8 °F 72% 30.26 in 3.0 mi North 6.9 mph - N/A   Overcast
1:35 AM 1.4 °F -14.5 °F -4.0 °F 78% 30.27 in 3.0 mi North 10.4 mph 16.1 mph N/A   Overcast
1:55 AM 1.4 °F -15.3 °F -7.6 °F 66% 30.28 in 3.0 mi North 11.5 mph - N/A   Overcast
2:15 AM -0.4 °F -17.6 °F -2.2 °F 92% 30.29 in 2.5 mi North 11.5 mph 16.1 mph N/A   Overcast
2:35 AM -0.4 °F -13.4 °F -7.6 °F 72% 30.30 in 2.5 mi North 6.9 mph - N/A   Overcast
2:55 AM -0.4 °F -15.7 °F -2.2 °F 92% 30.31 in 0.8 mi North 9.2 mph 17.3 mph N/A   Overcast
3:15 AM -0.4 °F -13.4 °F -7.6 °F 72% 30.32 in 1.2 mi North 6.9 mph - N/A   Overcast
3:35 AM -0.4 °F -14.7 °F -2.2 °F 92% 30.33 in 1.8 mi North 8.1 mph - N/A   Overcast
3:55 AM -0.4 °F -14.7 °F -7.6 °F 72% 30.34 in 4.0 mi North 8.1 mph - N/A   Overcast
4:15 AM -0.4 °F -13.4 °F -5.8 °F 78% 30.35 in 7.0 mi North 6.9 mph - N/A   Overcast
4:35 AM -0.4 °F -15.7 °F -5.8 °F 78% 30.36 in 7.0 mi North 9.2 mph - N/A   Overcast
4:55 AM -0.4 °F -13.4 °F -5.8 °F 78% 30.37 in 10.0 mi North 6.9 mph - N/A   Overcast
5:15 AM -0.4 °F -14.7 °F -5.8 °F 78% 30.37 in 8.0 mi North 8.1 mph - N/A   Overcast
5:35 AM -0.4 °F -12.0 °F -5.8 °F 78% 30.38 in 5.0 mi NNW 5.8 mph - N/A   Overcast
5:55 AM -0.4 °F -15.7 °F -5.8 °F 78% 30.40 in 6.0 mi North 9.2 mph - N/A   Overcast
6:15 AM -0.4 °F -13.4 °F -7.6 °F 72% 30.40 in 9.0 mi North 6.9 mph - N/A   Overcast
6:35 AM -0.4 °F -15.7 °F -7.6 °F 72% 30.41 in 7.0 mi NNW 9.2 mph - N/A   Overcast
6:55 AM -0.4 °F -14.7 °F -7.6 °F 72% 30.41 in 9.0 mi North 8.1 mph - N/A   Overcast
7:15 AM -0.4 °F -16.7 °F -7.6 °F 72% 30.43 in 0.8 mi NW 10.4 mph - N/A   Overcast
7:35 AM -0.4 °F -14.7 °F -5.8 °F 78% 30.43 in 0.2 mi NW 8.1 mph - N/A   Overcast
7:55 AM -2.2 °F -20.7 °F -7.6 °F 78% 30.44 in 0.2 mi WNW 12.7 mph - N/A   Overcast
8:15 AM -2.2 °F -19.9 °F -9.4 °F 71% 30.44 in 0.5 mi NW 11.5 mph - N/A   Overcast
8:35 AM -2.2 °F -16.8 °F -9.4 °F 71% 30.45 in 1.5 mi NW 8.1 mph - N/A   Overcast
8:55 AM -2.2 °F -18.0 °F -9.4 °F 71% 30.45 in 1.0 mi NNW 9.2 mph - N/A   Overcast
9:15 AM -2.2 °F -18.0 °F -9.4 °F 71% 30.46 in 1.5 mi NW 9.2 mph - N/A   Overcast
9:35 AM -2.2 °F -21.5 °F -9.4 °F 71% 30.46 in 1.2 mi NW 13.8 mph 17.3 mph N/A   Overcast
9:55 AM -2.2 °F -18.0 °F -7.6 °F 78% 30.47 in 1.0 mi NW 9.2 mph - N/A   Overcast
10:15 AM -2.2 °F -19.9 °F -9.4 °F 71% 30.47 in 1.8 mi NW 11.5 mph - N/A   Overcast
10:35 AM -2.2 °F -18.0 °F -11.2 °F 66% 30.47 in 2.0 mi NW 9.2 mph - N/A   Overcast
10:55 AM -2.2 °F -20.7 °F -9.4 °F 71% 30.47 in 2.0 mi WNW 12.7 mph 16.1 mph N/A   Overcast
11:15 AM -2.2 °F -16.8 °F -11.2 °F 66% 30.47 in 2.5 mi WNW 8.1 mph - N/A   Overcast
11:35 AM -2.2 °F -19.9 °F -9.4 °F 71% 30.47 in 1.0 mi WNW 11.5 mph - N/A   Overcast
11:55 AM -4.0 °F -20.2 °F -13.0 °F 65% 30.46 in 4.0 mi WNW 9.2 mph - N/A   Overcast
12:15 PM -2.2 °F -16.8 °F -9.4 °F 71% 30.47 in 2.5 mi WNW 8.1 mph - N/A   Overcast
12:35 PM -2.2 °F -16.8 °F -11.2 °F 66% 30.46 in 2.0 mi West 8.1 mph - N/A   Overcast
12:55 PM -2.2 °F -18.0 °F -9.4 °F 71% 30.45 in 3.0 mi WSW 9.2 mph - N/A   Overcast
1:15 PM -2.2 °F -18.0 °F -11.2 °F 66% 30.45 in 7.0 mi SW 9.2 mph - N/A   Mostly Cloudy
1:35 PM -2.2 °F -18.9 °F -11.2 °F 66% 30.43 in 10.0 mi WSW 10.4 mph - N/A   Scattered Clouds
1:55 PM -2.2 °F -15.6 °F -11.2 °F 66% 30.42 in 10.0 mi West 6.9 mph - N/A   Partly Cloudy
2:15 PM -2.2 °F -16.8 °F -11.2 °F 66% 30.42 in 10.0 mi WSW 8.1 mph - N/A   Clear
2:35 PM -2.2 °F -19.9 °F -9.4 °F 71% 30.41 in 10.0 mi SW 11.5 mph - N/A   Clear
2:55 PM -2.2 °F -18.9 °F -13.0 °F 60% 30.41 in 10.0 mi West 10.4 mph - N/A   Clear
3:15 PM -0.4 °F -15.7 °F -11.2 °F 60% 30.40 in 10.0 mi WSW 9.2 mph - N/A   Clear
3:35 PM -0.4 °F -16.7 °F -11.2 °F 60% 30.39 in 10.0 mi West 10.4 mph - N/A   Clear
3:55 PM -2.2 °F -18.9 °F -13.0 °F 60% 30.39 in 10.0 mi West 10.4 mph - N/A   Clear
4:15 PM -2.2 °F -16.8 °F - N/A% 30.38 in 10.0 mi West 8.1 mph - N/A   Clear
4:35 PM -2.2 °F -15.6 °F -11.2 °F 66% 30.37 in 10.0 mi WSW 6.9 mph - N/A   Clear
4:55 PM -2.2 °F -15.6 °F -14.8 °F 55% 30.36 in 10.0 mi WSW 6.9 mph - N/A   Clear
5:15 PM -7.6 °F -18.8 °F -20.2 °F 54% 30.36 in 10.0 mi WSW 4.6 mph - N/A   Clear
5:35 PM -4.0 °F -16.3 °F -9.4 °F 78% 30.33 in 10.0 mi SW 5.8 mph - N/A   Clear
5:55 PM -4.0 °F -19.0 °F -14.8 °F 60% 30.32 in 10.0 mi SW 8.1 mph - N/A   Clear
6:15 PM -5.8 °F -23.4 °F -14.8 °F 65% 30.31 in 10.0 mi SW 10.4 mph - N/A   Clear
6:35 PM -5.8 °F -24.4 °F -14.8 °F 65% 30.30 in 10.0 mi SW 11.5 mph - N/A   Clear
6:55 PM -5.8 °F -22.4 °F -14.8 °F 65% 30.29 in 10.0 mi SW 9.2 mph - N/A   Clear
7:15 PM -5.8 °F -23.4 °F -14.8 °F 65% 30.29 in 10.0 mi SW 10.4 mph - N/A   Clear
7:35 PM -5.8 °F -24.4 °F -14.8 °F 65% 30.27 in 10.0 mi SW 11.5 mph - N/A   Clear
7:55 PM -5.8 °F -23.4 °F -14.8 °F 65% 30.24 in 10.0 mi SSW 10.4 mph - N/A   Clear
8:15 PM -7.6 °F -25.7 °F -14.8 °F 71% 30.23 in 10.0 mi SW 10.4 mph - N/A   Clear
8:35 PM -7.6 °F -26.6 °F -16.6 °F 65% 30.21 in 10.0 mi SW 11.5 mph 17.3 mph N/A   Clear
8:55 PM -7.6 °F -24.6 °F -14.8 °F 71% 30.19 in 10.0 mi SW 9.2 mph 18.4 mph N/A   Clear
9:15 PM -7.6 °F -26.6 °F -16.6 °F 65% 30.17 in 10.0 mi SW 11.5 mph 16.1 mph N/A   Clear
9:35 PM -7.6 °F -27.5 °F -14.8 °F 71% 30.16 in 10.0 mi SSW 12.7 mph 16.1 mph N/A   Clear
9:55 PM -7.6 °F -28.3 °F -14.8 °F 71% 30.13 in 10.0 mi SSW 13.8 mph - N/A   Clear
10:15 PM -7.6 °F -28.3 °F -16.6 °F 65% 30.11 in 10.0 mi SSW 13.8 mph 20.7 mph N/A   Partly Cloudy
10:35 PM -5.8 °F -25.2 °F -13.0 °F 71% 30.08 in 10.0 mi SSW 12.7 mph 19.6 mph N/A   Partly Cloudy
10:55 PM -5.8 °F -26.8 °F -14.8 °F 65% 30.05 in 10.0 mi SSW 15.0 mph 20.7 mph N/A   Clear
11:15 PM -5.8 °F -26.8 °F -16.6 °F 60% 30.02 in 8.0 mi SSW 15.0 mph 24.2 mph N/A   Clear
11:35 PM -5.8 °F -25.2 °F -13.0 °F 71% 30.01 in 10.0 mi SSW 12.7 mph 20.7 mph N/A   Partly Cloudy
11:55 PM -5.8 °F -25.2 °F -14.8 °F 65% 29.99 in 10.0 mi SW 12.7 mph 21.9 mph N/A   Partly Cloudy